THORAD DELTA 1 DEB, 8170

Orbit data source: Space-Track

THORAD DELTA 1 DEB, 8170 is space debris in SSO originally from a launch on Fri, 15 Nov 1974 UTC launched from the Air Force Western Test Range (AFWTR). Debris objects in space refer to the collection of defunct objects orbiting the Earth. Examples of debris include non-operational satellites, rocket bodies, and fragments generated from explosions, collisions, or faulty payload assembly.

Loading next visibility...
Identifier
8170, 1974-089AL
Orbit
SSO
Country
Flag of USUS
Related business
Manufacturer
Unknown
Mission
Spacecraft
Bus & Motor
Unknown
Mass
Unknown
Launch date (UTC)
1974-11-15 (51 years ago)
Launch vehicle
Unknown
Launch site
Air Force Western Test Range (AFWTR)
Object type
Payload
Rocket body
Debris
Shape & HBR
Unknown
Radar Cross Section
Small (<0.1 m²)

Expand to show TLE details & history
Last TLE update: 12 hours ago

TLE from 12 hours ago
0 THORAD DELTA 1 DEB
1 08170U 74089AL  25242.82665358  .00028761  00000-0  15988-1 0  9998
2 08170 101.6088 187.0166 0073646  61.8714 355.2253 14.09594474448866
Epoch: 2025-08-30T19:50Z
TLE epoch observation values (Epoch: 2025-08-30T19:50:22.869Z)
Latitude
55.36398°
Longitude
-107.04016°
Altitude
816.669 km
Speed
7.478 km/s
True Right ascension
11h 19m 14s
True Declination
55° 12' 15"
Sunlit
Object was in daylight at epoch
Visualization orbit readout
Latitude
Unknown
Longitude
Unknown
Altitude
Unknown
Speed
Unknown
Apparent Right ascension
Unknown
Apparent Declination
Unknown
Sunlit
N/A
Visualization observer readout
Local Sidereal Time
22:59:46
Azimuth
Unknown
Elevation
Unknown
Doppler factor
Unknown
Orbital elements
Apogee altitude
911.384 km
Perigee altitude
804.8 km
Semi-major axis
7,236.229 km
Eccentricity
0.00736
Inclination
101.6088°
RAAN
187.0166°
Arg. of periapsis
61.8714°
True anomaly
355.1544°
Mean anomaly
355.2253°
Eccentric anomaly
355.18992°
Mean motion
3.52594 °/min
Orbital period
102.1 mins
BSTAR
0.015988
Loading maneuver chart data...
Computing Atmospheric mass density...
Loading historical data...
Loading historical data...
Loading historical data...
Loading historical data...
Loading historical data...
Loading historical data...
Loading historical data...

Documentation

Showing up to 5 results
|